This demonstration page uses our WeatherBlox Daily Observations layout. Learn more.

Left ArrowRight Arrow

41.55636, -103.73856

Hourly Observations for June 18, 2015

Temp ( °F °C ) Dew Point ( °F °C ) Humidity (%) Winds ( mph kmh ) Pressure ( in mb ) Visibility ( mi km ) Precip ( " mm )
12:53 am 00:53 Clear 66 18.9 63 17.2 90 90 ESE 15 24 29.87 1012 10 16.0934 0 0
1:53 am 01:53 Clear 65 18.3 62 16.7 90 90 E 6 9 29.88 1012 10 16.0934 0 0
2:53 am 02:53 Partly Cloudy 66 18.9 62 16.7 87 87 ENE 15 24 29.91 1013 10 16.0934 0 0
3:53 am 03:53 Mostly Cloudy 60 15.6 55 12.8 84 84 ENE 14 22 29.93 1014 10 16.0934 0 0
4:26 am 04:26 Mostly Cloudy 60 15.6 56 13.3 86 86 E 9 15 29.97 1015 10 16.0934 0 0
4:53 am 04:53 Cloudy 61 16.1 56 13.3 84 84 S 7 11 29.95 1014 10 16.0934 0 0
5:10 am 05:10 Mostly Cloudy 61 16 55 13 83 83 S 8 13 29.97 1015 10 16.0934 0 0
5:53 am 05:53 Partly Cloudy 60 15.6 56 13.3 86 86 E 5 7 30 1016 10 16.0934 0 0
6:53 am 06:53 Cloudy 62 16.7 57 13.9 84 84 W 6 9 30.02 1017 10 16.0934 0 0
7:53 am 07:53 Cloudy 63 17.2 57 13.9 81 81 WNW 7 11 30.03 1017 10 16.0934 0 0
8:53 am 08:53 Cloudy 65 18.3 57 13.9 76 76 NW 10 17 30.04 1017 10 16.0934 0 0
9:18 am 09:18 Partly Cloudy 68 20 59 15 73 73 NW 10 17 29.94 1014 10 16.0934 0 0
9:53 am 09:53 Sunny 70 21.1 59 15 68 68 NW 9 15 30.03 1017 10 16.0934 0 0
10:40 am 10:40 Mostly Cloudy 72 22 61 16 69 69 VRB 3 6 29.94 1014 10 16.0934 0 0
10:53 am 10:53 Cloudy 72 22.2 60 15.6 66 66 N 6 9 30.04 1017 10 16.0934 0 0
11:21 am 11:21 Cloudy 72 22.2 61 16.1 68 68 Calm 29.94 1014 10 16.0934 0 0
11:53 am 11:53 Mostly Sunny 75 23.9 60 15.6 60 60 Calm 30.04 1017 10 16.0934 0 0
12:53 pm 12:53 Mostly Cloudy 74 23.3 61 16.1 64 64 Calm 30.02 1017 10 16.0934 0 0
1:00 pm 13:00 Mostly Cloudy 75 24 61 16 61 61 ESE 5 7 29.88 1012 10 16.0934 0 0
1:14 pm 13:14 Partly Cloudy 76 24.4 62 16.7 62 62 E 5 7 29.88 1012 10 16.0934 0 0
1:53 pm 13:53 Mostly Sunny 78 25.6 62 16.7 58 58 ESE 5 7 29.99 1016 10 16.0934 0 0
2:53 pm 14:53 Sunny 79 26.1 62 16.7 56 56 SE 8 13 29.96 1015 10 16.0934 0 0
3:53 pm 15:53 Sunny 81 27.2 63 17.2 54 54 ESE 12 19 29.96 1015 10 16.0934 0 0
4:53 pm 16:53 Sunny 81 27.2 63 17.2 54 54 ESE 16 26 29.93 1014 10 16.0934 0 0
5:53 pm 17:53 Sunny 80 26.7 63 17.2 56 56 ESE 15 24 29.92 1013 10 16.0934 0 0
6:53 pm 18:53 Sunny 77 25 61 16.1 58 58 ESE 13 20 29.92 1013 10 16.0934 0 0
7:53 pm 19:53 Sunny 76 24.4 60 15.6 58 58 SE 15 24 29.94 1014 10 16.0934 0 0
8:53 pm 20:53 Clear 72 22.2 61 16.1 68 68 ESE 16 26 29.96 1015 10 16.0934 0 0
9:53 pm 21:53 Clear 68 20 61 16.1 78 78 ESE 18 30 29.98 1015 10 16.0934 0 0
10:53 pm 22:53 Clear 66 18.9 61 16.1 84 84 SE 14 22 29.98 1015 10 16.0934 0 0
11:53 pm 23:53 Clear 64 17.8 60 15.6 87 87 ESE 14 22 29.95 1014 10 16.0934 0 0

Powered by AerisWeather